Wind_Speed
16 16 16 16 17 17 17 16 16 17 18 19 18 17 18 19 20 22 22 21 20 19 21 23 24 26 27 27 25 24 25 24 21 20 19 19 19 18 17 18 17 16 15 16 17 17 18 18 16 18 18 16 15 16 16 17 18 18 17 15 15 17 18 14 8 5 9 14 15 15 18 20 17 17 18 17 19 20 16 15 17 15 13 15 17
16 17 17 18 19 18 18 17 17 18 19 19 19 19 20 20 20 22 22 22 21 19 22 25 26 26 24 23 22 20 20 20 21 22 21 21 22 20 16 16 17 17 16 17 17 17 17 15 16 18 18 17 18 17 17 18 18 18 17 16 14 16 19 16 11 8 7 12 17 16 17 20 18 17 18 17 19 20 18 16 16 16 14 15 16
17 17 18 19 20 20 20 19 19 20 21 20 21 22 21 21 21 22 22 24 23 22 24 26 26 24 20 19 18 16 16 17 19 22 22 21 23 20 16 16 16 17 17 17 17 17 16 15 16 19 19 19 19 18 18 19 18 18 18 19 17 14 19 20 14 11 10 11 16 17 17 20 18 18 18 17 18 20 19 16 15 16 16 15 15
18 18 19 20 20 21 21 20 20 21 22 21 22 23 23 22 22 22 23 25 24 22 23 26 26 23 19 17 16 14 15 15 16 20 22 22 22 19 17 17 17 17 17 17 18 18 17 17 17 19 21 20 20 19 19 18 18 18 18 19 17 14 19 22 17 14 11 9 14 19 18 20 17 17 19 17 17 19 19 17 16 15 16 16 15
18 19 20 20 20 22 21 21 21 22 22 22 23 25 25 24 23 24 24 25 23 22 24 27 25 21 18 16 14 15 16 16 16 21 23 23 22 21 19 18 17 17 17 17 19 18 17 17 18 19 19 19 19 19 19 19 19 19 18 17 16 14 18 20 20 20 15 10 16 17 14 18 17 16 19 19 17 18 18 17 17 16 16 16 15
19 19 20 20 20 22 22 22 22 22 22 23 23 25 27 26 25 24 25 24 23 22 24 25 23 18 14 11 12 13 14 15 16 21 25 24 24 23 20 18 17 16 16 16 18 18 17 17 18 18 18 19 20 18 19 20 18 18 18 16 14 14 16 18 21 23 17 13 17 18 17 20 18 15 19 19 17 18 17 17 17 16 16 16 15
19 19 19 20 21 22 22 22 22 23 23 23 23 24 26 27 26 25 25 24 23 24 26 25 18 12 9 10 12 12 12 14 15 20 24 23 21 21 18 17 16 15 15 16 16 16 17 18 18 18 18 20 20 19 19 20 18 18 17 12 12 12 14 19 23 23 20 17 16 17 19 20 17 15 17 18 17 17 17 17 17 17 17 17 16
19 19 20 20 21 22 22 22 22 23 23 22 23 23 25 27 28 26 26 25 25 25 27 27 21 12 9 10 10 11 13 14 16 19 21 21 21 21 19 16 15 15 15 16 16 16 17 18 18 17 17 19 19 18 19 19 18 17 12 8 11 14 14 18 19 19 19 15 11 14 17 15 16 16 16 17 17 17 17 17 16 17 17 17 17
19 20 20 21 22 22 22 22 23 23 23 23 24 24 25 26 27 27 27 26 26 26 26 27 26 20 16 14 10 9 11 14 17 18 18 20 22 20 17 15 14 14 15 16 17 18 18 17 16 16 16 17 17 16 16 17 15 13 10 11 14 15 14 16 15 14 13 11 10 15 15 13 15 17 16 17 18 16 16 17 16 16 17 17 18
19 20 21 21 22 22 22 22 23 23 24 24 24 24 25 26 27 26 27 27 26 27 26 27 27 23 21 19 13 7 6 8 13 16 18 21 20 18 17 16 16 16 15 15 16 17 17 15 14 15 15 15 17 17 17 16 13 13 13 14 17 19 17 15 16 16 14 12 12 14 15 16 17 17 16 16 17 16 16 16 16 16 17 17 17
19 20 21 21 22 22 22 22 23 23 24 24 24 24 24 25 26 25 26 27 26 27 27 28 29 26 22 20 16 9 6 7 9 13 17 19 17 16 19 18 15 15 14 15 16 15 16 15 13 14 15 16 17 18 18 16 14 13 14 16 18 21 19 16 18 19 16 13 13 13 15 15 14 15 17 15 15 16 16 15 16 16 15 16 15
19 20 21 21 22 22 22 22 23 23 24 24 24 24 24 25 26 26 26 27 26 26 26 27 28 28 23 20 18 15 12 11 10 11 14 16 15 16 17 17 16 16 15 16 16 15 15 15 13 12 15 17 16 16 18 18 15 13 14 15 15 17 18 18 19 21 18 15 15 16 15 12 9 11 14 14 15 17 17 15 16 16 15 15 14
19 20 20 21 22 22 22 22 22 23 23 23 23 24 24 25 26 26 26 26 26 25 25 25 26 27 26 24 21 19 19 16 14 14 15 15 15 17 18 17 16 18 18 17 16 15 14 14 13 12 13 15 15 15 16 18 18 16 15 15 14 15 17 18 20 21 20 17 15 16 14 11 10 12 14 16 17 18 18 17 16 16 16 16 14
19 19 20 21 21 21 22 22 22 23 23 23 23 23 24 25 25 25 25 26 27 26 25 25 25 25 26 26 24 21 22 22 21 19 18 16 16 17 19 19 18 19 20 19 17 15 13 12 13 13 13 14 16 16 15 16 17 18 16 15 15 16 16 17 19 20 19 15 13 13 12 10 11 14 18 20 19 16 17 18 17 17 16 13 10
19 19 20 20 21 21 22 22 22 22 22 23 23 23 24 24 24 24 25 25 26 26 25 24 24 25 25 26 26 24 23 25 25 22 19 18 17 17 19 20 20 19 19 20 19 16 12 11 11 12 13 14 15 16 16 14 14 15 16 15 14 15 15 16 19 21 18 13 11 13 15 12 9 11 16 19 18 14 13 12 16 19 14 8 10
18 19 20 20 21 21 21 21 22 22 22 22 23 23 23 24 24 24 24 24 24 25 25 24 23 23 24 26 28 28 27 27 27 24 21 19 18 18 17 18 18 18 18 19 20 17 12 10 9 11 13 13 13 15 16 14 13 14 17 15 12 13 14 15 18 22 19 13 11 14 16 15 12 11 13 16 16 16 13 8 12 19 17 11 12
18 18 19 20 21 21 21 21 22 22 22 22 23 23 23 23 23 23 23 23 23 24 24 24 23 21 22 25 28 31 33 32 30 27 23 21 19 18 16 15 16 17 17 18 17 14 10 9 12 13 13 11 11 14 16 15 13 15 16 14 10 10 13 14 16 18 18 16 15 16 17 17 17 15 14 15 16 17 17 11 8 13 14 13 15
18 18 19 20 20 20 20 21 21 21 22 22 22 22 22 22 22 22 22 22 22 22 22 23 23 22 22 24 26 30 34 34 33 31 26 22 20 18 15 15 15 15 16 17 14 9 7 7 9 11 11 11 12 15 18 16 13 12 15 14 10 10 11 13 14 15 15 14 14 15 15 15 15 15 15 15 15 15 16 14 10 13 16 17 17
17 17 18 18 19 20 20 20 21 21 22 22 22 22 22 22 22 22 22 21 22 22 21 21 22 22 23 23 23 27 32 33 34 35 30 25 21 18 15 14 15 15 15 15 9 1 1 4 4 5 6 9 13 15 17 17 12 10 13 14 12 12 12 12 13 13 13 12 11 10 10 10 11 12 11 12 13 15 17 18 13 8 9 12 14
16 16 16 17 18 19 20 20 20 21 21 22 22 22 21 22 22 22 22 22 22 22 21 21 21 21 23 24 22 25 30 31 33 36 33 28 24 19 15 14 14 14 12 7 2 6 4 3 1 0 2 9 13 13 17 19 13 10 13 14 12 13 14 13 14 14 14 14 13 12 12 12 13 13 13 12 14 15 17 18 15 9 5 5 8
15 15 15 16 17 18 19 20 19 20 21 21 22 22 22 22 22 22 22 22 22 23 23 22 22 21 22 24 23 25 28 29 31 35 34 30 26 20 16 14 12 12 11 7 7 7 4 4 3 3 4 9 12 12 17 19 14 11 13 14 14 17 17 16 16 16 15 16 15 14 13 13 12 13 13 13 14 14 14 14 14 12 10 9 9
15 15 16 16 16 17 18 19 18 19 20 21 21 22 23 23 22 22 22 22 22 23 23 23 23 22 22 23 24 24 25 26 29 34 36 33 29 22 18 14 10 9 8 7 9 8 5 4 3 3 4 6 9 11 13 13 10 11 14 16 18 20 19 17 17 16 15 15 14 13 12 12 12 12 12 13 13 12 13 14 14 13 13 12 10
15 15 16 16 17 16 17 18 18 18 20 21 21 22 23 23 23 23 22 22 22 22 23 23 23 23 22 23 24 24 24 24 27 31 34 35 33 29 23 18 12 9 8 9 10 10 8 8 7 5 5 6 8 9 10 11 13 17 18 19 20 19 17 16 15 14 14 14 13 13 12 11 11 11 11 11 11 11 11 12 12 12 12 12 11
15 15 16 16 16 16 16 17 18 18 20 21 21 22 22 23 23 23 23 22 22 22 22 22 23 23 23 22 22 24 25 25 27 28 29 31 33 32 30 27 22 18 17 16 15 14 13 13 13 12 10 10 11 13 17 19 21 23 23 21 18 14 13 14 13 12 13 13 12 12 12 12 12 12 11 11 12 13 13 14 13 12 11 11 13
15 15 15 15 16 16 16 16 16 17 18 20 21 21 22 22 23 24 23 23 22 22 22 21 21 22 22 21 21 22 23 26 29 30 29 29 30 31 30 29 28 26 25 23 21 19 17 17 17 18 17 16 15 16 19 20 20 21 21 19 17 14 13 12 12 12 12 12 12 13 13 13 13 13 12 12 12 13 14 15 15 14 13 13 14
14 14 15 15 15 16 16 16 16 15 16 18 21 21 21 21 21 23 24 23 22 21 21 22 21 20 21 21 20 20 20 23 28 31 30 29 29 29 29 29 27 25 25 24 23 22 21 21 23 23 22 22 21 22 22 20 19 19 17 17 18 18 18 17 17 16 15 14 14 13 13 12 13 13 13 14 13 12 12 13 14 13 13 14 14
14 14 15 16 15 16 16 15 15 15 14 15 18 20 20 20 19 19 20 21 22 21 22 22 20 20 19 19 20 19 19 20 24 28 28 28 28 27 26 26 26 24 23 22 23 23 23 24 27 28 27 26 26 26 25 23 22 22 20 19 20 21 21 21 21 20 18 17 17 16 14 13 14 14 15 15 14 13 12 12 13 12 11 12 13
13 13 15 15 15 15 16 15 14 15 14 12 13 15 17 18 17 15 15 18 19 19 21 21 20 20 19 19 19 19 17 18 20 22 23 24 25 25 24 23 23 21 20 19 19 20 22 24 27 29 29 29 28 28 29 28 28 28 26 25 25 24 23 23 24 23 20 19 18 17 15 15 15 16 16 16 16 15 13 11 12 11 10 10 10
12 13 13 14 14 14 15 15 15 16 15 10 7 7 11 15 15 12 12 15 18 18 18 19 20 20 19 19 19 18 16 16 16 17 18 19 21 22 23 22 20 18 16 15 14 17 20 24 26 27 27 27 27 27 27 27 27 27 26 25 26 26 25 25 25 23 20 19 19 18 16 15 15 15 16 17 17 16 14 12 10 8 7 7 8
12 13 13 13 14 14 15 15 15 16 16 12 6 3 5 9 12 11 10 12 16 18 18 19 20 21 20 18 19 19 18 16 15 14 14 15 17 18 19 20 19 18 15 13 14 18 21 23 24 24 23 23 24 23 22 22 22 21 21 20 21 22 22 23 22 20 18 17 17 17 16 16 15 14 15 16 16 16 15 13 10 9 8 9 9
12 13 12 12 13 13 14 15 15 15 16 16 13 10 6 5 6 8 10 10 12 14 17 19 21 23 22 20 18 20 22 21 18 15 14 13 14 15 15 16 17 17 17 18 19 20 20 20 20 20 20 20 20 20 19 20 19 19 18 18 18 18 19 19 18 16 16 15 14 14 14 14 14 14 15 15 14 13 13 12 11 10 10 9 9
11 13 12 11 11 12 12 13 14 15 15 16 17 16 14 10 7 6 7 8 9 11 13 17 21 22 23 23 22 23 24 24 22 21 18 13 12 13 13 13 14 14 14 16 18 17 16 16 16 16 17 17 16 16 17 18 17 17 17 17 16 16 16 15 14 14 14 14 13 13 12 12 13 13 13 14 13 12 12 11 10 10 9 8 7
10 12 12 11 10 11 12 12 13 14 15 15 15 16 16 16 14 11 8 8 8 8 8 13 19 21 20 23 25 24 23 23 22 22 20 16 12 11 11 10 12 12 12 13 13 13 14 13 13 13 13 14 14 15 15 15 15 15 15 14 14 13 12 12 12 12 13 13 13 12 12 11 12 13 12 12 11 10 10 9 8 8 8 7 6
6 6 8 9 9 11 12 11 12 14 14 13 15 16 16 16 17 16 14 12 12 10 8 9 16 19 20 23 25 23 21 21 19 19 21 18 13 10 10 10 11 11 11 12 11 11 11 12 11 10 10 10 11 12 12 12 13 14 13 12 12 11 11 12 12 12 12 12 12 12 11 10 10 10 10 10 9 9 8 7 7 7 6 5 4
6 4 6 9 10 11 11 10 11 13 13 12 14 15 16 16 16 16 16 15 16 16 13 12 15 19 21 24 26 23 21 20 17 16 19 20 15 11 10 11 11 11 11 11 11 11 10 10 10 9 8 8 8 9 9 10 11 12 12 11 11 11 11 11 11 11 11 11 11 10 9 9 9 9 9 9 8 8 7 7 6 6 5 5 5
9 8 9 11 12 12 11 10 10 10 11 12 13 14 14 16 16 16 16 16 15 16 16 16 17 19 21 24 25 22 20 20 18 16 17 18 16 12 10 10 10 11 11 10 11 10 10 9 9 8 8 8 8 8 8 9 10 11 11 11 11 10 10 9 9 10 10 9 9 8 8 8 8 8 9 9 8 8 8 7 6 6 5 5 4
9 9 11 13 13 11 10 9 9 9 10 11 12 12 12 14 16 15 15 16 16 16 17 17 17 18 20 23 24 22 20 19 18 16 17 17 16 13 11 10 9 10 10 10 10 10 9 9 8 8 7 8 8 8 8 9 9 9 9 9 9 9 9 9 8 8 9 8 8 8 8 7 7 7 7 7 7 7 7 7 7 7 5 3 2
8 7 9 12 12 10 10 10 9 10 10 10 11 12 12 14 15 15 14 15 15 15 16 17 16 17 20 22 21 20 19 18 16 15 16 16 15 13 11 10 9 9 9 10 9 9 9 7 7 7 7 7 8 8 8 8 8 8 8 8 8 9 9 9 8 8 8 8 7 7 7 6 7 7 7 7 7 6 6 5 6 6 4 3 3
7 6 8 11 11 9 10 11 10 10 10 11 11 12 12 12 13 13 14 14 15 15 15 16 15 15 17 19 18 17 17 18 16 15 14 14 15 13 12 10 10 9 9 9 9 9 7 6 6 6 7 7 7 7 7 8 8 8 8 8 8 8 7 7 7 7 7 6 6 6 6 7 7 6 6 7 7 6 6 5 4 4 4 5 4
7 6 7 9 9 9 10 11 11 10 11 11 11 11 11 11 11 12 13 14 14 13 14 15 15 13 13 15 15 14 15 17 16 14 13 13 13 13 13 11 11 10 9 9 9 8 6 5 5 5 6 6 6 6 7 7 7 7 6 6 6 6 6 6 6 6 7 7 7 6 6 6 6 6 6 6 6 5 5 4 4 4 4 3 3
8 8 7 8 9 9 9 10 10 10 10 11 11 10 10 10 10 11 11 12 13 13 12 14 14 11 10 13 15 13 12 14 15 14 14 12 11 12 12 11 11 10 9 9 9 8 6 6 6 5 6 6 6 6 6 6 6 6 5 5 6 6 6 6 6 6 6 6 6 5 5 5 6 6 5 5 4 4 4 4 4 4 3 1 1
8 8 8 8 10 11 10 10 10 9 9 10 10 10 10 9 9 9 9 10 12 12 12 13 13 10 8 11 14 12 11 13 13 13 13 12 11 11 10 10 9 9 8 8 9 7 6 6 6 6 6 5 5 5 5 5 5 5 5 5 5 5 6 6 5 5 5 6 5 5 5 5 5 5 4 4 4 5 5 4 4 4 3 2 2
7 8 8 8 9 10 10 10 10 10 9 10 9 9 9 9 8 8 8 8 10 12 11 11 12 10 8 9 11 11 11 12 12 12 12 12 11 11 10 8 8 7 7 8 8 6 5 5 5 5 5 4 4 4 4 4 3 4 4 4 4 4 5 5 4 4 5 6 5 4 3 2 3 4 4 4 5 5 5 5 5 4 3 2 2
7 8 8 8 9 9 9 10 10 9 9 9 9 8 8 9 8 8 9 8 9 10 10 9 10 10 9 9 10 10 10 10 11 11 11 10 10 10 9 8 7 7 7 8 7 5 4 4 4 4 4 4 4 4 4 4 3 2 3 3 3 2 3 3 3 3 4 4 3 3 3 3 4 4 4 4 4 3 4 5 5 5 4 3 3
7 7 8 9 9 9 9 9 10 9 9 10 10 9 9 9 8 8 9 9 9 9 8 7 7 9 9 9 9 9 9 10 9 10 10 10 9 9 8 7 7 7 7 7 7 6 5 4 3 4 4 4 4 4 4 5 5 5 3 2 2 2 3 2 1 3 3 2 4 2 2 3 3 3 3 3 2 3 4 4 4 4 4 3 3
7 7 8 8 8 9 9 9 9 10 10 10 10 10 10 10 9 8 8 8 8 8 7 6 6 7 8 8 7 8 8 9 8 8 8 8 8 8 7 5 5 5 5 5 5 5 5 4 3 3 2 3 3 3 3 3 3 4 3 1 2 3 3 2 2 3 2 4 9 8 3 1 2 2 2 3 4 4 4 3 3 3 3 3 4
6 7 8 8 8 9 8 8 8 10 10 10 10 10 10 10 10 9 8 7 7 7 7 7 7 7 7 7 6 6 7 8 7 7 7 6 6 7 7 5 3 3 4 4 4 3 3 3 3 2 2 2 2 2 3 2 2 2 1 1 1 2 3 3 2 3 2 4 8 8 6 5 5 5 4 3 5 4 2 1 1 1 1 1 3
6 7 7 7 8 8 8 8 9 10 11 11 11 10 10 10 10 10 9 8 8 8 8 8 8 7 7 6 6 6 6 6 6 6 6 6 5 5 5 4 4 3 2 2 2 2 2 2 2 2 2 2 2 2 3 3 3 2 0 3 4 3 3 3 1 2 2 3 5 6 6 7 7 6 5 5 5 4 4 3 2 2 2 1 2
6 7 7 7 7 8 8 9 10 11 11 11 11 11 10 10 11 10 10 9 9 8 8 9 9 8 7 6 7 7 6 6 6 6 6 6 6 5 3 3 3 3 2 1 1 0 0 1 2 2 2 2 2 3 3 3 3 2 1 3 3 4 5 5 2 1 1 1 4 4 3 4 5 5 5 4 3 4 5 4 3 2 2 2 1
5 6 7 7 8 9 9 10 11 11 11 11 11 11 11 11 11 11 10 10 10 9 8 8 9 8 7 7 8 8 6 5 5 6 6 6 6 6 3 1 1 3 4 4 2 1 1 2 2 2 2 2 3 4 4 4 3 3 2 3 4 4 5 6 4 2 1 1 3 3 3 4 5 5 5 4 3 3 4 4 3 3 2 3 2
5 6 6 7 8 9 9 10 10 11 11 11 11 11 12 12 12 11 11 10 10 10 9 9 9 8 8 7 7 7 6 5 5 6 6 6 6 6 5 3 2 3 4 4 4 4 3 3 3 3 3 3 3 4 4 4 6 7 7 7 6 5 5 6 4 3 3 2 2 3 4 4 4 5 6 5 3 3 3 4 4 5 3 3 3
Wind_Direction
8 6 2 355 351 348 344 341 339 339 338 335 332 326 320 314 307 306 305 297 289 285 282 279 273 267 262 255 248 233 220 219 226 230 226 226 229 225 213 208 208 208 209 213 215 213 211 210 208 210 211 208 210 216 216 216 221 224 221 215 203 187 190 200 190 201 218 208 210 203 182 179 184 187 184 173 176 185 182 181 189 188 187 194 196
8 7 4 360 357 353 349 346 342 341 341 340 338 333 328 322 312 308 307 302 299 296 291 287 285 281 274 265 252 230 216 218 224 226 224 224 228 227 219 216 215 212 212 216 217 214 213 212 209 211 211 206 207 213 217 218 218 219 217 216 208 180 178 191 189 189 206 204 214 210 181 182 189 186 184 175 172 183 184 180 185 186 184 188 197
7 6 5 4 1 357 354 351 347 346 345 344 342 338 332 327 321 313 306 304 303 301 298 294 290 286 281 272 260 238 223 226 227 226 224 226 230 226 219 221 220 216 216 217 220 217 211 209 208 210 210 207 207 212 217 218 218 220 218 216 214 192 184 193 188 187 195 193 211 214 189 186 194 187 186 181 174 183 188 184 185 187 186 186 193
8 6 5 5 3 1 358 354 351 350 348 346 344 342 337 331 327 321 313 308 307 306 302 298 293 284 272 269 268 255 239 235 234 231 227 228 232 227 218 220 220 219 219 218 220 220 214 211 209 210 211 207 206 211 214 216 217 220 220 216 211 194 188 194 191 191 194 187 214 219 191 182 198 193 184 182 179 185 192 191 188 189 189 190 193
8 6 6 5 3 2 0 357 355 352 350 349 346 346 345 340 335 332 326 319 316 316 309 301 295 282 266 263 269 260 248 247 245 239 234 231 233 230 221 215 216 217 218 219 221 220 216 216 213 211 211 208 209 211 210 215 219 220 220 217 211 196 186 190 196 199 195 191 220 225 185 177 201 197 183 184 182 184 192 193 191 191 191 192 195
9 8 7 6 4 3 2 359 357 354 351 349 347 347 348 346 343 341 340 335 328 326 322 310 295 280 269 263 262 254 249 252 251 246 245 239 233 232 224 212 212 216 216 219 222 222 219 218 217 212 207 207 213 216 212 214 219 222 223 218 207 191 176 179 192 199 200 198 208 212 190 184 198 198 187 188 185 184 191 191 192 194 191 191 195
10 10 9 8 6 4 3 1 358 356 353 351 350 349 349 350 350 348 349 350 345 341 339 331 313 287 277 271 264 262 257 254 254 257 261 259 245 238 230 217 213 214 215 218 220 222 220 218 217 214 209 209 214 217 217 217 219 225 229 220 210 200 175 175 185 191 199 204 200 204 200 187 187 198 196 189 187 189 189 189 193 194 191 192 193
13 13 11 10 7 5 4 2 0 359 357 354 354 353 351 351 354 355 356 358 356 353 350 349 349 345 323 300 284 282 275 266 269 270 270 271 261 247 234 222 216 214 215 218 218 219 221 221 219 217 214 212 212 212 216 219 219 224 219 184 200 212 188 178 186 189 194 199 199 208 206 184 178 195 198 189 190 194 191 192 195 194 191 192 195
16 14 13 11 8 6 5 4 3 2 0 358 357 356 355 353 355 358 360 0 0 360 357 356 2 9 1 345 330 310 295 282 278 274 270 273 272 261 243 225 218 218 217 218 219 218 222 224 221 220 217 213 211 209 212 217 214 209 190 163 181 197 183 177 188 191 189 193 207 211 201 187 189 195 195 191 192 195 193 192 196 198 196 195 198
18 16 15 13 9 8 7 5 4 4 3 2 360 359 359 357 356 358 360 1 3 4 5 4 6 14 15 9 7 1 334 301 277 269 267 270 273 277 273 251 227 221 220 219 220 219 220 220 217 220 217 213 214 212 213 219 214 207 202 193 193 190 179 176 184 189 193 198 210 210 195 190 195 195 196 195 192 196 197 192 196 201 199 200 202
19 17 16 14 11 10 8 6 5 5 4 4 3 2 1 1 0 0 1 3 5 7 10 9 8 12 18 18 18 21 12 340 299 276 270 271 268 273 284 276 250 235 226 221 221 218 217 216 214 218 219 217 217 215 214 217 217 212 204 196 195 190 180 179 183 188 197 198 198 204 200 198 198 193 195 196 191 198 203 196 199 204 204 206 205
20 18 16 15 13 11 10 7 6 5 4 4 5 4 4 4 3 3 3 4 6 9 11 12 10 10 13 18 16 10 4 356 332 301 285 283 277 267 273 277 270 262 247 231 227 221 218 216 210 214 220 217 215 215 216 216 213 209 201 194 199 199 193 195 193 191 198 201 197 200 202 203 201 187 189 198 199 202 209 206 204 209 210 210 214
21 19 16 15 15 12 10 9 7 6 5 4 5 6 6 6 5 5 4 4 6 9 11 13 12 10 9 12 12 3 354 350 341 324 306 294 284 271 267 270 273 273 265 252 239 226 219 215 209 212 218 214 209 209 212 215 213 208 202 199 202 202 199 200 197 194 200 208 207 208 209 209 209 196 191 206 211 204 207 213 210 211 215 217 224
21 19 16 16 14 12 10 10 8 7 6 5 6 7 7 7 7 6 6 6 6 8 9 11 12 12 9 8 9 3 351 347 345 334 322 309 293 278 271 269 270 273 271 268 260 242 223 214 211 215 215 208 206 205 200 204 210 207 201 200 201 200 198 198 199 200 204 209 208 210 209 205 211 212 207 214 220 210 205 213 212 214 219 216 205
21 18 17 15 13 11 12 11 8 7 6 6 7 7 7 8 8 7 7 8 9 9 9 9 10 13 11 9 11 8 355 349 348 340 328 318 303 288 280 275 273 272 272 275 275 264 243 227 219 218 218 209 202 202 198 190 191 195 196 195 194 194 196 199 203 203 204 207 209 207 202 189 186 204 208 213 220 215 208 217 222 218 211 182 153
21 18 16 14 13 12 11 10 10 9 8 7 6 6 6 7 7 7 6 8 10 10 11 11 9 10 13 13 14 12 5 358 354 349 338 326 312 301 295 288 281 276 274 276 279 275 262 246 235 232 231 220 202 200 199 185 178 189 191 179 165 172 187 198 202 204 206 211 217 213 207 198 191 196 205 207 206 199 189 198 227 221 207 187 175
20 18 16 14 12 12 10 9 10 10 10 10 8 6 6 6 5 6 6 7 9 9 10 12 11 9 12 14 13 13 11 6 1 357 349 339 328 317 309 302 292 283 277 278 282 281 267 242 230 230 234 229 211 204 200 189 187 191 182 165 149 163 189 199 199 203 210 215 221 222 218 213 211 215 216 209 201 195 186 180 220 224 204 202 204
19 18 17 15 13 13 12 9 9 10 11 12 11 8 8 7 5 5 5 5 6 7 7 9 12 11 11 12 11 11 12 9 7 5 0 352 344 331 320 313 306 299 288 279 273 264 251 241 227 223 227 227 219 209 201 197 198 189 173 167 166 164 179 195 192 192 201 206 211 218 217 214 217 223 225 220 217 216 202 190 212 234 222 216 207
18 16 15 16 16 15 14 12 10 10 11 11 11 10 10 10 9 7 8 7 5 6 5 6 10 12 11 11 9 10 12 11 10 9 6 2 356 345 332 320 314 317 305 283 269 230 296 272 241 228 230 217 209 204 201 200 200 184 172 176 176 160 160 178 179 170 173 173 169 174 176 176 183 189 195 203 206 207 199 186 184 206 223 215 192
18 15 13 16 17 17 16 15 13 13 12 11 11 11 10 10 10 10 12 12 9 9 8 5 7 10 12 13 12 10 11 12 11 11 10 7 4 357 348 334 324 329 331 318 34 66 25 324 286 118 168 186 191 195 198 198 193 178 178 180 171 154 148 151 153 148 144 140 134 132 135 139 144 144 142 147 156 168 180 183 176 156 116 120 145
17 15 15 16 18 19 18 17 16 14 14 13 13 13 11 10 10 9 10 12 12 12 12 10 9 9 11 14 14 11 11 12 12 15 16 14 10 6 3 356 341 334 341 10 48 48 19 6 29 72 132 172 186 191 195 198 196 187 188 182 161 147 141 137 138 136 131 128 126 122 121 122 118 117 121 121 121 130 142 154 163 159 135 123 121
15 15 18 17 17 20 18 17 17 14 14 15 14 15 14 11 12 10 8 9 12 13 13 12 11 10 10 11 12 10 9 11 15 20 25 25 22 19 14 9 359 346 348 10 23 26 35 49 50 66 109 153 171 179 190 197 185 167 170 166 151 142 137 133 134 134 130 129 128 123 119 115 107 102 107 109 107 110 113 116 127 133 128 129 130
17 17 18 17 18 19 18 18 17 15 15 15 15 16 16 13 12 13 10 9 9 11 13 13 12 11 9 9 12 12 10 11 15 21 28 32 34 35 33 29 24 23 32 38 34 37 64 90 93 89 99 116 126 133 142 141 129 128 138 146 144 138 134 134 137 139 138 134 130 125 119 116 110 101 96 95 95 95 97 101 109 115 114 116 115
19 19 18 18 18 18 18 17 17 17 17 17 17 18 18 15 14 13 13 11 9 10 11 11 11 12 10 9 11 13 14 15 18 22 28 34 38 41 42 44 46 49 54 58 56 54 67 89 101 104 105 107 109 110 111 112 114 118 124 131 134 131 135 141 142 138 133 127 122 116 108 105 104 99 96 98 96 95 97 95 94 101 110 117 117
21 20 17 17 17 18 19 16 16 19 18 19 19 17 16 16 16 13 13 12 10 10 10 9 10 12 12 10 10 13 15 18 23 26 28 33 38 42 46 47 50 53 55 60 64 65 67 82 98 105 104 106 113 113 106 103 107 113 117 121 120 114 115 119 118 111 105 98 95 93 88 88 92 95 99 102 99 97 100 99 97 102 108 111 112
23 21 18 17 17 19 21 17 16 19 18 17 18 16 14 16 15 13 13 12 11 11 10 7 7 11 14 13 11 12 13 14 19 23 24 27 31 37 43 45 46 51 54 57 63 68 69 73 83 91 93 93 95 99 99 101 106 107 105 105 104 101 98 95 91 89 87 84 82 80 79 83 89 91 93 95 94 94 98 101 102 104 104 101 99
23 21 20 19 17 20 23 18 15 18 17 14 15 14 15 16 16 16 15 13 11 11 11 9 6 5 10 14 12 11 13 13 15 18 19 20 21 25 32 37 39 42 48 51 56 62 65 70 76 81 84 82 81 84 87 90 92 92 90 89 89 92 96 95 91 85 83 85 85 83 85 90 92 92 90 89 89 90 96 104 106 105 106 104 99
27 25 23 20 18 19 21 19 16 15 16 17 17 16 16 16 20 26 26 22 19 16 13 13 10 2 5 13 12 7 8 11 14 17 17 16 17 19 23 28 30 31 35 41 49 55 61 67 71 74 76 75 72 73 75 76 78 79 80 81 84 88 94 97 93 85 81 85 87 84 84 86 88 92 94 90 85 82 84 91 96 99 108 111 109
29 30 27 22 19 18 18 19 16 14 17 26 38 35 27 24 28 40 42 35 33 29 25 25 20 11 10 16 14 6 360 357 0 6 9 11 14 17 21 25 27 27 26 27 35 44 50 54 58 60 64 65 65 65 68 70 71 72 74 76 78 81 84 85 83 79 78 81 83 80 78 78 78 82 87 86 84 82 79 78 81 91 107 114 114
27 29 28 23 18 15 16 18 15 12 13 19 31 52 42 32 34 42 46 40 35 33 34 34 29 22 19 20 18 14 9 360 351 349 353 358 6 13 16 19 23 29 34 39 45 48 48 48 50 52 57 61 61 62 66 70 72 72 74 77 78 79 81 80 79 78 78 79 79 78 79 78 77 78 80 78 78 79 76 73 73 79 85 88 90
24 23 24 23 18 14 12 14 13 10 9 10 11 13 17 24 27 28 30 33 34 32 32 32 29 25 22 20 16 14 14 13 9 3 355 348 351 360 7 12 16 22 34 47 53 50 46 44 46 49 55 60 62 63 67 72 75 76 78 80 83 87 89 88 87 88 88 87 86 86 86 85 85 87 85 81 77 74 72 74 75 77 79 81 84
27 22 17 15 14 11 9 8 5 5 8 8 6 6 7 6 6 8 10 17 22 24 27 28 26 23 23 22 16 10 9 10 11 11 9 1 355 353 356 6 14 16 22 35 43 43 41 40 41 43 48 55 59 64 68 70 73 77 78 79 82 86 88 89 94 100 101 98 94 92 92 91 89 87 84 81 79 75 74 75 77 76 79 81 85
26 21 10 1 0 5 7 3 358 1 7 6 2 3 6 4 2 0 358 360 3 3 11 22 25 24 22 17 12 7 4 3 5 9 10 10 9 5 359 3 15 20 23 30 37 40 40 40 41 42 45 51 57 63 66 69 71 73 73 74 75 79 82 88 96 100 99 99 95 89 86 84 83 82 80 78 80 81 79 79 81 83 86 86 90
25 30 18 4 355 357 1 358 352 356 3 1 357 1 7 5 2 1 1 359 357 355 354 13 24 25 19 9 5 2 358 356 359 6 10 10 14 21 20 17 18 22 29 35 38 39 40 40 44 46 46 49 54 56 59 66 70 72 72 72 72 74 79 86 90 89 89 92 90 84 80 81 83 86 86 86 86 86 84 85 90 93 94 94 98
10 32 30 8 351 349 353 352 350 355 359 358 357 359 2 3 3 2 2 0 357 355 353 356 8 15 13 6 2 1 360 357 356 0 7 11 15 24 29 27 22 23 30 37 38 39 40 41 46 50 49 49 52 52 53 60 66 68 70 72 72 75 78 80 81 82 83 85 84 80 78 81 83 84 87 90 92 92 89 89 93 95 98 100 97
1 14 12 356 343 342 345 347 350 354 351 350 356 358 356 358 1 0 0 1 358 353 352 351 354 1 6 5 3 2 2 2 2 3 7 12 17 23 28 31 30 29 31 34 36 37 39 42 45 51 56 58 60 61 62 65 67 70 73 76 77 77 77 76 78 83 84 84 83 82 82 84 87 91 93 93 94 95 95 92 90 91 95 102 103
6 15 5 350 343 342 343 347 353 351 340 340 354 360 356 357 0 358 358 3 1 353 352 355 356 357 359 2 4 4 1 0 4 9 12 14 17 21 27 32 37 38 34 29 30 34 38 42 46 53 61 67 71 72 74 77 80 81 81 82 83 84 83 83 86 90 90 88 86 84 82 84 89 94 98 99 99 100 101 101 99 97 89 82 99
3 18 7 353 348 347 347 350 354 351 343 344 356 2 357 355 358 358 359 4 4 358 355 358 2 2 360 359 2 3 3 3 5 7 11 14 16 20 27 30 34 40 36 27 23 27 34 41 49 59 70 79 83 85 86 85 85 85 85 88 94 97 95 91 91 97 98 97 96 92 87 86 88 88 90 92 89 86 89 94 102 106 93 69 79
358 28 23 3 353 350 351 352 354 352 349 350 353 357 357 357 358 359 360 1 3 2 358 357 1 6 4 1 1 3 5 8 9 6 6 9 11 17 25 28 27 31 31 24 18 21 31 46 57 66 79 88 90 91 90 87 87 91 94 96 100 103 100 96 97 98 95 91 90 87 80 79 82 83 85 86 85 82 79 74 73 80 82 83 84
345 3 12 357 347 347 351 354 353 351 349 349 348 351 357 0 360 359 359 359 1 2 359 356 1 8 9 6 8 9 8 10 11 10 8 7 8 13 20 24 23 22 22 19 16 17 30 57 72 80 87 90 91 91 92 92 94 98 100 99 99 98 96 92 90 88 87 85 86 84 81 80 82 83 83 86 90 92 93 90 84 79 84 103 114
336 338 344 334 326 332 345 352 349 345 344 346 347 348 354 358 359 358 358 358 359 0 357 355 359 8 16 15 15 15 10 8 11 12 9 7 5 4 7 11 14 16 17 18 18 20 37 62 76 82 85 86 88 90 93 97 98 98 97 95 93 94 91 87 84 86 87 84 79 74 74 77 81 84 85 87 88 88 87 91 98 95 86 66 91
333 333 337 329 325 334 345 348 342 340 346 351 350 347 348 349 351 356 357 355 356 357 357 354 354 2 21 24 20 16 10 9 12 13 11 10 9 4 359 358 2 9 19 25 24 25 38 54 63 70 76 82 87 92 99 103 102 102 103 102 107 112 104 93 90 90 85 78 74 74 75 82 91 89 80 77 84 82 69 61 72 92 93 62 49
329 329 331 327 326 332 338 340 342 346 351 350 344 338 336 336 342 352 355 354 354 357 358 354 351 355 12 24 21 16 12 12 14 15 13 13 15 13 10 8 11 21 32 33 28 29 41 49 54 60 67 74 81 85 87 89 93 100 100 94 102 115 110 105 115 122 106 95 92 85 72 78 106 100 77 64 73 78 69 56 51 57 74 74 34
323 329 332 328 325 326 331 337 343 344 342 339 335 330 330 336 346 352 354 355 357 357 358 357 352 351 357 6 9 9 9 10 12 15 17 18 19 19 23 29 35 39 38 33 32 38 43 41 43 48 52 57 61 55 45 36 35 58 93 104 108 116 121 129 132 117 105 105 121 137 130 110 99 98 90 80 76 77 74 67 55 44 47 46 25
325 333 331 329 329 329 329 333 336 336 338 340 339 335 335 342 349 352 353 357 356 354 357 1 355 349 352 358 0 3 6 8 9 11 15 19 21 20 22 28 32 33 35 37 39 41 38 33 38 47 49 51 52 49 38 21 4 5 35 96 113 96 112 124 63 39 42 2 341 345 139 122 74 47 50 53 54 67 69 61 54 53 56 56 57
326 329 325 327 329 326 324 330 336 336 337 339 338 336 337 342 346 348 350 354 354 349 352 357 354 349 351 355 357 359 0 4 9 12 12 14 18 17 15 15 14 14 18 23 26 28 29 31 36 45 45 43 46 46 41 29 9 2 13 42 46 52 79 104 17 13 9 349 351 355 11 88 79 78 55 2 8 43 61 48 36 37 43 75 92
324 328 326 328 327 322 322 329 333 329 328 334 341 340 336 334 337 341 345 349 349 346 347 354 355 354 352 353 354 355 355 358 6 12 10 7 10 13 14 13 4 0 6 9 8 12 20 24 28 30 25 25 26 12 6 14 15 356 345 139 99 82 109 122 70 16 356 354 359 1 1 10 37 75 76 9 359 19 34 39 76 61 12 82 108
334 335 330 330 328 325 328 332 331 328 330 337 341 338 333 332 333 335 338 344 346 345 348 352 352 352 352 348 343 344 344 345 352 360 1 359 360 0 2 2 1 5 18 19 12 15 15 4 3 5 353 346 348 345 343 345 348 352 42 169 182 192 181 159 70 21 30 22 9 3 360 1 9 25 24 0 348 345 329 301 234 185 175 103 89
341 336 332 333 331 328 331 335 334 332 335 337 336 333 333 334 334 333 334 339 340 342 346 349 346 347 352 348 338 334 333 334 343 351 355 357 357 348 340 353 4 358 336 305 257 193 337 333 331 331 326 318 317 324 321 319 330 351 120 171 231 249 224 214 248 300 138 31 348 343 347 358 360 353 342 336 328 314 303 292 271 211 163 141 125
337 333 332 335 334 331 335 340 339 336 337 339 336 334 333 334 334 334 335 336 336 338 344 344 341 343 349 348 342 340 338 336 343 352 355 358 359 354 345 343 341 327 329 337 337 298 281 288 281 273 283 293 298 302 299 288 284 285 271 280 296 278 222 208 227 257 238 274 328 339 338 345 353 342 325 315 307 284 266 249 240 228 181 149 142
326 329 331 334 335 336 338 339 338 339 341 341 337 335 335 337 338 337 335 335 335 337 339 338 336 338 345 348 348 348 347 342 343 347 348 351 356 354 348 337 316 318 331 342 339 327 321 313 296 285 286 292 297 298 288 263 255 265 278 283 276 249 216 209 225 249 255 258 300 344 336 330 337 332 318 307 284 253 230 216 234 249 222 162 149
Height
819 818 817 816 814 812 810 809 807 805 803 801 799 797 795 793 790 788 786 784 783 782 781 781 781 782 781 779 778 778 778 778 778 777 775 776 777 777 776 777 778 779 781 782 783 784 786 788 789 790 792 794 795 797 797 798 799 800 800 801 804 808 810 811 813 816 817 816 817 817 818 820 822 825 828 829 830 833 835 836 837 838 840 841 842
819 818 817 815 814 812 810 808 807 805 803 801 799 797 795 792 790 788 785 784 782 781 780 779 779 780 780 780 778 778 777 776 776 775 773 774 776 776 775 775 776 777 779 780 781 782 783 785 786 788 790 792 793 795 796 797 797 798 799 799 801 804 806 808 810 813 815 816 816 816 817 818 820 822 826 827 829 832 834 834 836 837 839 839 840
820 818 817 815 814 812 810 808 807 805 803 801 799 797 795 792 790 788 785 783 782 780 779 777 777 777 777 778 778 777 777 776 775 774 772 774 775 774 773 773 774 775 776 778 779 780 780 783 785 786 787 789 790 792 793 794 795 796 796 798 799 801 803 806 808 811 813 814 814 814 815 817 817 819 823 826 828 830 832 833 834 836 837 838 839
821 819 817 816 814 812 811 809 808 806 804 802 800 797 795 792 790 788 785 783 781 779 777 776 775 774 774 775 775 775 775 774 774 773 772 772 773 772 771 771 772 773 774 776 777 778 778 781 784 784 785 786 788 789 790 790 792 793 794 796 798 800 802 804 807 809 811 812 813 813 814 815 815 816 820 824 826 828 830 831 832 834 835 837 838
821 820 818 817 815 814 812 810 809 807 805 803 801 798 795 792 790 787 785 782 781 779 777 775 774 773 772 772 773 773 773 772 773 773 772 771 771 771 769 769 770 771 773 774 775 776 777 779 781 783 783 784 784 785 786 787 789 790 792 794 797 799 801 803 805 808 811 812 812 812 813 814 814 814 817 821 823 826 827 828 830 832 833 835 836
823 821 820 818 817 815 813 812 810 808 807 804 802 799 796 793 790 788 785 783 781 779 776 774 772 771 770 770 770 771 771 771 772 773 773 772 772 771 768 767 768 769 771 772 773 773 775 777 779 781 782 782 782 782 783 785 786 788 790 792 795 798 801 804 807 809 812 812 811 811 812 812 812 813 814 817 820 822 824 826 827 829 831 832 835
825 823 822 820 818 816 814 813 811 809 808 806 803 801 797 794 792 789 787 784 781 780 777 774 771 770 770 769 768 769 770 771 771 772 773 774 773 771 768 766 766 767 769 770 771 772 773 775 776 778 780 781 780 780 781 782 784 786 789 791 793 796 800 806 809 810 811 811 809 808 809 808 810 811 811 814 818 820 821 823 824 826 828 830 832
826 824 823 821 820 818 816 814 812 811 809 807 805 802 799 796 793 791 788 785 783 781 778 775 772 770 770 770 768 769 769 771 772 772 773 773 773 772 768 766 765 765 767 768 769 771 772 773 774 775 776 778 779 780 780 781 783 786 789 791 791 793 797 802 806 807 807 806 805 805 805 805 807 810 810 812 815 816 818 820 821 822 825 827 829
828 826 825 823 821 819 817 816 814 812 811 808 806 804 801 798 795 792 790 787 785 783 780 778 774 772 772 771 770 770 771 772 773 774 773 772 772 772 770 766 764 764 765 766 767 769 770 771 771 772 773 775 777 779 780 781 783 785 788 789 790 792 795 797 800 801 802 802 802 803 803 803 805 807 808 810 812 813 815 817 819 820 822 824 826
829 828 826 825 823 821 819 817 816 814 812 810 808 806 803 800 797 795 793 790 787 785 782 781 778 775 774 773 772 771 772 774 774 774 774 773 771 771 770 768 765 764 764 764 765 766 767 768 769 770 771 773 775 777 779 780 781 783 785 786 788 791 793 794 796 798 799 800 800 801 801 802 803 805 806 808 810 812 813 815 817 818 819 821 823
831 830 828 827 826 824 822 820 818 817 814 813 811 808 806 803 800 798 796 793 790 788 785 784 782 780 777 776 775 773 772 774 773 773 774 773 771 769 768 768 765 763 763 763 764 764 765 766 767 768 770 772 774 776 777 779 780 781 783 784 786 788 790 792 793 795 797 798 798 799 799 800 801 803 805 807 809 811 812 813 815 816 816 817 819
832 832 831 830 829 827 825 823 821 819 817 815 813 811 808 806 803 800 798 796 793 791 789 787 785 783 781 779 778 777 775 775 774 773 773 772 772 770 769 768 766 764 764 763 762 763 763 763 765 766 768 770 772 774 775 777 778 780 781 783 784 785 787 789 791 793 794 795 796 798 798 799 800 801 803 806 808 810 811 812 813 814 814 815 815
835 834 833 832 831 830 828 826 824 822 820 818 816 813 811 808 806 803 801 799 797 794 792 791 788 786 784 782 781 779 777 776 774 774 772 771 771 770 769 768 767 765 764 763 762 762 761 762 763 765 767 769 771 772 773 775 776 778 780 781 782 783 785 787 788 790 792 794 795 797 798 799 800 801 803 805 807 808 809 810 811 812 813 814 814
837 836 835 834 833 832 830 829 827 825 823 821 818 816 814 811 809 807 804 802 800 797 795 793 791 790 788 786 784 782 780 777 775 774 773 771 770 770 769 768 767 765 764 764 763 762 760 761 762 764 766 767 768 770 772 773 774 776 778 779 781 782 783 785 787 788 790 792 794 795 796 798 799 800 801 803 804 805 807 809 810 811 813 813 813
839 838 837 836 835 833 832 831 830 828 826 823 821 818 816 814 812 810 807 805 803 801 799 797 795 793 791 789 787 785 783 780 777 775 773 771 770 769 768 767 766 765 764 763 763 762 760 760 762 763 764 765 766 768 770 771 772 774 776 778 780 781 782 783 785 786 788 790 791 793 794 796 798 799 800 801 803 803 805 807 809 810 812 812 813
841 840 839 838 836 835 834 833 831 830 828 826 823 821 818 816 814 812 810 808 806 804 802 800 798 796 794 792 790 788 786 783 779 776 773 771 769 768 767 767 766 765 764 763 764 764 762 760 761 763 764 764 765 767 769 770 771 773 774 776 778 779 780 782 783 785 787 789 790 792 793 795 796 798 799 800 801 802 803 806 808 809 810 811 812
843 842 841 840 839 838 837 835 833 832 829 828 826 823 821 819 816 814 812 810 808 806 805 803 802 799 797 795 793 790 787 784 781 778 774 772 769 767 767 767 765 764 764 763 764 765 764 762 761 762 763 763 764 767 769 770 770 771 772 774 776 778 779 781 782 784 786 788 789 791 793 794 795 797 798 799 800 801 802 804 806 808 809 809 810
845 844 844 843 842 841 839 838 835 833 831 829 828 825 823 821 819 817 815 812 811 809 807 806 804 803 801 798 796 793 790 787 783 779 775 773 770 768 767 767 765 764 763 763 763 765 765 762 761 761 762 762 763 766 768 769 769 770 771 773 776 777 778 780 781 783 785 786 788 790 791 793 794 796 797 798 799 801 801 802 805 808 809 807 807
848 847 846 845 844 843 842 840 838 835 833 831 829 827 825 824 822 819 817 815 813 812 810 808 806 805 803 802 799 796 793 790 785 781 777 774 771 769 768 767 766 764 763 762 762 764 763 761 761 761 762 762 763 765 767 769 769 770 771 773 775 776 777 778 780 782 784 786 788 790 791 793 794 796 797 798 799 801 802 802 805 808 808 805 805
850 849 848 846 846 845 844 842 840 837 835 833 831 829 827 825 823 821 819 818 816 814 812 810 808 807 805 803 801 799 795 792 788 784 779 775 772 770 769 768 767 766 764 762 761 762 762 761 761 762 763 764 764 765 767 768 769 770 770 772 774 775 776 778 780 782 784 787 789 790 792 793 794 796 797 798 799 801 802 802 803 806 806 805 805
852 851 849 848 847 846 845 844 842 840 838 835 833 831 829 827 825 823 821 819 818 816 814 812 811 809 807 805 803 801 799 796 792 787 782 778 775 773 771 771 769 768 767 764 763 762 762 762 763 764 764 765 766 765 766 767 768 769 770 771 772 774 776 778 781 783 785 787 789 791 792 794 795 796 797 799 800 801 802 802 803 805 805 806 807
853 852 850 849 848 847 847 845 844 842 840 838 836 834 832 830 827 825 823 821 819 818 816 815 813 811 809 808 806 804 802 799 797 793 787 783 779 776 775 773 772 771 769 767 766 766 765 765 765 765 766 766 766 766 767 767 767 768 768 770 772 774 777 779 781 783 785 787 789 791 793 795 796 797 798 799 801 802 803 802 803 804 805 806 808
854 853 852 851 849 848 848 847 845 844 842 840 838 836 834 833 830 828 826 823 821 820 818 817 815 814 812 810 809 807 805 803 800 797 793 789 785 781 779 777 775 774 772 771 771 770 769 767 766 767 768 768 767 768 768 767 768 769 769 771 774 777 778 780 782 784 786 787 789 791 793 795 797 798 799 800 802 803 804 803 803 804 805 807 809
855 854 853 852 850 850 849 848 847 846 844 842 840 838 837 836 833 831 829 827 824 822 821 820 818 816 815 813 812 810 808 806 803 800 797 794 790 787 784 782 780 779 777 776 775 775 774 770 767 768 769 769 769 769 769 769 769 770 771 774 776 779 780 781 783 784 786 788 790 791 794 796 798 799 801 802 803 803 804 804 805 806 808 810 812
856 855 854 853 851 850 850 849 848 847 846 844 843 841 840 838 836 835 832 830 828 825 824 823 821 819 818 816 815 813 811 809 807 804 801 799 795 792 790 788 786 785 784 782 781 780 780 776 770 769 770 771 771 771 771 772 772 772 774 776 777 778 780 783 784 786 788 790 792 793 795 796 798 800 802 803 804 804 805 805 807 809 810 812 814
857 857 855 853 852 851 851 851 850 849 848 847 845 844 842 841 840 839 836 834 832 829 828 826 824 822 821 820 818 817 815 813 811 808 805 803 800 797 794 792 791 790 790 788 786 784 784 781 775 772 773 774 774 773 773 775 775 776 778 779 779 779 781 783 785 788 790 793 794 796 797 798 800 801 802 804 805 806 807 808 809 810 812 813 815
858 858 856 855 853 852 852 852 851 849 849 848 847 846 844 843 843 842 840 838 836 833 831 829 827 825 823 822 821 820 818 817 814 812 810 807 805 803 800 797 796 795 794 793 791 789 789 786 781 777 776 778 779 778 777 778 778 779 781 783 783 783 784 785 788 790 793 795 797 798 800 801 802 802 803 805 806 808 809 809 810 812 814 815 817
859 858 858 857 855 854 853 853 851 850 849 849 848 848 846 845 844 843 842 841 839 837 835 833 831 828 826 824 824 823 821 820 818 816 814 812 810 807 804 802 800 799 799 798 797 795 793 789 785 781 780 782 783 783 782 783 783 784 785 787 787 787 788 789 791 794 797 798 799 801 803 804 804 805 806 807 807 809 810 811 812 814 815 817 818
859 859 859 858 857 855 854 853 851 850 849 849 849 848 847 846 845 845 844 843 841 840 838 836 835 832 830 828 827 826 824 822 821 819 818 816 814 811 809 807 805 803 802 801 799 797 795 791 788 786 786 787 788 788 788 788 788 789 790 790 791 791 791 792 794 797 800 801 802 804 806 807 808 808 808 808 809 810 812 813 815 816 817 818 818
860 859 859 859 858 856 855 854 853 851 850 849 848 848 847 847 846 846 845 844 842 841 840 838 837 835 833 832 831 829 827 825 823 821 819 818 816 815 813 811 809 807 805 803 801 799 798 796 794 793 793 793 793 793 794 793 793 794 794 794 794 795 795 796 798 801 804 805 806 807 808 809 810 810 811 811 812 812 813 815 816 817 818 819 819
862 861 860 860 860 858 857 855 854 852 851 850 849 848 848 847 846 846 845 844 843 842 841 839 838 836 835 834 833 831 829 826 824 822 820 818 817 816 815 814 812 810 808 806 803 802 802 801 800 800 799 798 798 799 799 798 798 799 799 798 799 799 800 801 803 805 806 808 809 811 811 812 813 814 814 814 814 815 816 817 818 819 820 821 821
863 863 862 861 860 859 858 857 855 853 852 851 850 849 848 847 846 846 845 844 843 843 842 840 839 837 836 835 833 832 829 827 825 823 820 819 818 817 816 815 814 812 811 809 807 806 805 805 805 805 804 803 803 803 802 802 802 803 803 803 803 804 804 805 807 808 809 811 812 813 814 815 816 816 816 816 817 818 819 820 821 821 822 822 823
865 864 864 862 861 859 859 858 857 854 853 853 852 850 849 848 847 846 845 844 844 843 842 841 839 838 836 835 834 832 830 828 826 824 822 820 818 817 817 816 815 814 813 811 810 809 809 808 808 808 808 808 807 807 806 806 806 806 806 807 807 808 809 809 810 811 812 813 814 815 816 817 817 817 818 819 819 820 822 822 823 823 824 824 825
865 864 864 863 861 860 860 859 858 855 855 854 853 850 849 849 848 847 846 845 844 843 843 841 840 838 837 836 834 833 831 829 827 825 823 821 819 818 817 816 816 815 814 813 813 812 812 811 811 811 812 811 811 811 810 810 809 809 810 810 811 812 812 813 813 814 815 815 816 817 817 818 819 819 820 820 821 822 823 824 824 825 825 826 826
864 863 863 863 862 860 860 860 859 857 856 855 854 852 851 850 849 848 847 846 846 845 843 842 841 840 838 836 834 833 831 829 828 826 824 822 821 819 818 817 817 816 816 815 815 815 815 814 814 814 814 814 814 814 814 813 813 813 813 814 814 815 815 816 816 817 817 818 818 819 820 820 820 821 821 822 823 824 825 825 826 826 827 827 828
864 863 864 864 862 861 861 860 859 859 857 856 854 854 852 851 850 849 848 847 847 846 844 843 842 841 840 838 836 834 832 830 828 827 826 824 823 821 820 819 819 818 818 818 817 817 817 817 816 816 817 817 817 817 817 817 817 816 816 817 817 818 818 819 819 819 820 820 821 821 822 822 822 822 822 823 824 825 826 827 827 828 828 828 828
864 864 865 865 863 862 861 860 859 859 858 856 855 854 853 852 851 849 848 848 848 847 845 844 843 842 840 839 837 835 833 832 830 828 827 826 824 823 822 822 821 821 820 820 819 819 819 819 819 819 819 819 819 819 820 820 820 820 820 820 820 820 821 821 821 822 822 822 823 823 823 823 823 823 824 825 826 826 827 828 828 829 829 829 829
864 865 866 866 864 862 861 859 858 858 858 856 855 855 854 853 851 850 849 848 848 847 846 845 844 843 842 840 838 836 835 833 831 830 829 828 827 825 825 824 824 823 823 822 822 821 821 820 821 820 821 821 821 821 822 822 822 822 822 822 822 823 823 823 823 824 824 824 824 824 824 824 825 825 825 826 827 827 828 828 828 829 829 829 829
864 864 865 865 864 862 861 859 858 858 858 856 856 855 854 853 852 851 850 849 848 848 847 846 844 844 843 842 840 838 836 835 833 832 831 830 829 828 827 827 826 825 825 824 823 823 822 822 822 822 822 823 823 823 823 824 824 824 825 824 824 824 824 825 825 825 825 825 825 825 826 826 826 826 827 827 828 829 829 829 830 830 830 830 831
865 864 864 864 863 862 861 860 859 859 858 857 856 855 854 854 853 852 851 850 849 849 848 846 845 845 845 844 842 840 838 837 836 835 834 833 832 831 829 829 828 827 827 826 825 824 824 824 824 824 824 824 824 824 825 825 826 826 826 826 826 826 826 826 826 826 826 826 826 827 827 827 827 828 828 828 829 830 830 831 831 831 831 831 831
866 864 864 863 862 860 859 859 859 858 858 857 856 855 854 854 853 852 852 850 849 849 848 847 846 846 845 844 843 841 840 839 838 837 836 835 834 833 832 831 830 829 829 828 827 827 826 826 826 826 826 826 826 826 826 826 827 827 827 827 827 827 827 827 827 827 827 828 828 828 828 828 829 829 830 830 830 831 831 831 831 831 831 831 831
866 865 864 863 861 859 858 858 858 857 857 857 856 855 854 853 853 852 852 850 849 849 848 848 847 846 845 845 844 842 841 840 839 838 837 836 835 834 833 833 832 831 831 830 830 829 829 828 828 828 828 828 828 827 827 827 827 827 827 828 828 828 828 829 829 829 829 829 830 830 830 830 830 830 831 831 831 831 831 831 831 831 832 831 831
866 865 864 863 861 860 858 857 856 856 856 856 856 856 855 853 852 851 851 850 849 849 848 848 848 846 845 845 844 843 842 841 840 839 839 838 837 836 835 834 833 833 832 832 832 831 831 831 830 830 830 829 829 829 828 828 828 828 828 828 828 829 829 829 830 830 830 831 831 831 831 831 831 831 832 832 832 832 832 832 832 832 832 832 831
866 864 863 862 861 860 859 857 857 856 856 856 855 855 854 852 851 850 850 850 849 849 848 848 848 847 846 845 844 843 843 842 841 840 840 839 838 838 837 836 835 834 834 834 833 833 833 833 832 832 832 831 831 830 830 829 829 829 829 830 830 830 830 830 830 830 830 831 831 831 831 831 831 832 832 832 832 832 832 832 833 833 832 832 833
865 864 863 862 861 860 859 858 857 856 855 855 854 854 853 851 851 850 850 849 849 848 848 848 847 847 846 845 844 844 843 842 842 841 840 840 839 839 838 838 837 836 836 835 835 834 834 834 834 834 833 833 833 832 832 831 831 830 830 831 831 831 831 831 831 831 831 831 831 830 831 831 832 832 832 832 832 832 832 833 833 833 834 834 834
865 864 863 862 861 860 859 858 857 856 855 854 854 853 852 851 851 850 849 849 849 848 847 847 847 846 846 845 845 844 843 843 842 842 841 841 840 840 839 839 838 838 837 837 836 836 836 835 835 835 835 834 834 834 834 833 833 832 832 832 832 832 832 833 833 833 833 832 832 831 831 832 832 832 833 833 833 833 833 834 834 834 834 835 835
864 863 863 862 861 860 858 857 857 856 854 853 853 853 852 852 850 849 849 848 848 847 846 846 846 846 845 845 845 844 843 843 842 842 842 841 841 840 840 839 839 838 838 838 837 837 837 836 836 836 836 835 835 835 835 834 834 834 833 833 833 833 833 834 834 834 834 834 833 832 832 832 832 833 833 834 834 834 834 834 835 835 835 835 836
863 863 862 861 861 860 858 857 857 855 854 852 852 852 852 851 850 849 848 847 847 846 846 845 845 845 845 845 844 844 843 843 842 842 842 842 841 841 840 840 839 839 839 838 838 838 838 837 837 837 836 836 836 836 835 835 835 834 834 833 834 834 834 835 835 835 834 835 834 834 834 834 834 834 834 835 835 835 835 834 834 835 835 836 836
863 863 862 861 861 860 858 857 856 855 854 853 852 851 851 850 850 849 848 847 846 845 845 845 845 844 844 844 844 843 843 843 842 842 842 841 841 841 840 840 840 839 839 838 838 838 837 838 838 837 837 837 837 836 836 836 835 835 834 834 834 835 835 835 835 835 835 836 836 836 836 835 835 835 835 835 835 835 835 835 835 835 835 836 837
863 863 862 861 861 860 858 857 857 856 855 854 853 852 851 850 850 849 848 847 846 845 845 845 844 844 843 844 843 843 842 842 842 841 841 841 841 841 840 840 840 839 839 838 838 837 837 837 837 837 837 837 837 837 837 836 835 835 834 834 835 835 835 836 836 836 836 836 836 836 837 837 836 836 836 836 836 836 836 836 836 836 835 836 837
863 862 862 861 860 859 858 858 857 856 855 855 853 852 851 851 850 849 848 847 846 845 844 844 844 843 843 843 843 843 842 842 842 841 841 841 841 840 840 840 840 839 839 838 838 838 838 837 837 837 837 837 837 837 837 836 835 835 835 835 835 835 836 836 837 837 837 837 837 837 837 837 837 837 836 836 836 836 836 836 836 836 835 836 836